Time,TemperatureF,DewpointF,PressureIn,WindDirection,WindDirectionDegrees,WindSpeedMPH,WindSpeedGustMPH,Humidity,HourlyPrecipIn,Conditions,Clouds,dailyrainin,SoftwareType,DateUTC
2013-10-27 00:01:00,56.9,55.2,30.14,NNE,14,0.0,0.0,94,0.00,,,0.00,Wunderground v.1.15,2013-10-27 04:01:00,
2013-10-27 00:06:00,56.9,55.5,30.14,NNE,14,0.0,0.0,95,0.00,,,0.00,Wunderground v.1.15,2013-10-27 04:06:00,
2013-10-27 00:11:00,57.0,55.6,30.14,NNE,14,0.0,0.0,95,0.00,,,0.00,Wunderground v.1.15,2013-10-27 04:11:00,
2013-10-27 00:16:00,57.0,55.6,30.14,NNE,15,0.0,0.0,95,0.00,,,0.00,Wunderground v.1.15,2013-10-27 04:16:00,
2013-10-27 00:21:00,57.0,55.9,30.13,NNE,13,0.0,0.0,96,0.00,,,0.00,Wunderground v.1.15,2013-10-27 04:21:00,
2013-10-27 00:26:00,57.1,56.0,30.14,NNE,13,0.0,0.0,96,0.00,,,0.00,Wunderground v.1.15,2013-10-27 04:26:00,
2013-10-27 00:31:00,57.1,56.0,30.13,NNE,15,0.0,0.0,96,0.00,,,0.00,Wunderground v.1.15,2013-10-27 04:31:00,
2013-10-27 00:36:00,57.0,55.9,30.13,NNE,14,0.0,0.0,96,0.00,,,0.00,Wunderground v.1.15,2013-10-27 04:36:00,
2013-10-27 00:41:00,57.0,55.9,30.13,NNE,15,0.0,0.0,96,0.00,,,0.00,Wunderground v.1.15,2013-10-27 04:41:00,
2013-10-27 00:46:00,57.0,55.9,30.13,NNE,13,0.0,0.0,96,0.00,,,0.00,Wunderground v.1.15,2013-10-27 04:46:00,
2013-10-27 00:51:00,56.8,55.7,30.12,NNE,15,0.0,0.0,96,0.00,,,0.00,Wunderground v.1.15,2013-10-27 04:51:00,
2013-10-27 00:56:00,56.6,55.5,30.12,NNE,15,0.0,0.0,96,0.00,,,0.00,Wunderground v.1.15,2013-10-27 04:56:00,
2013-10-27 01:01:00,56.4,55.3,30.12,NNE,13,0.0,0.0,96,0.00,,,0.00,Wunderground v.1.15,2013-10-27 05:01:00,
2013-10-27 01:06:00,56.2,55.1,30.12,NNE,15,0.0,0.0,96,0.00,,,0.00,Wunderground v.1.15,2013-10-27 05:06:00,
2013-10-27 01:11:00,55.9,54.8,30.12,NNE,15,0.0,0.0,96,0.00,,,0.00,Wunderground v.1.15,2013-10-27 05:11:00,
2013-10-27 01:16:00,56.0,54.9,30.12,NNE,14,0.0,0.0,96,0.00,,,0.00,Wunderground v.1.15,2013-10-27 05:16:00,
2013-10-27 01:21:00,55.9,54.8,30.12,NNE,14,0.0,0.0,96,0.00,,,0.00,Wunderground v.1.15,2013-10-27 05:21:00,
2013-10-27 01:26:00,55.8,54.7,30.12,NNE,14,0.0,0.0,96,0.00,,,0.00,Wunderground v.1.15,2013-10-27 05:26:00,
2013-10-27 01:31:00,55.8,55.0,30.12,NNE,14,0.0,0.0,97,0.00,,,0.00,Wunderground v.1.15,2013-10-27 05:31:00,
2013-10-27 01:36:00,55.5,54.4,30.12,NNE,13,0.0,0.0,96,0.00,,,0.00,Wunderground v.1.15,2013-10-27 05:36:00,
2013-10-27 01:41:00,55.1,54.0,30.12,NNE,15,0.0,0.0,96,0.00,,,0.00,Wunderground v.1.15,2013-10-27 05:41:00,
2013-10-27 01:46:00,55.6,55.0,30.12,NNE,13,0.0,0.0,98,0.00,,,0.00,Wunderground v.1.15,2013-10-27 05:46:00,
2013-10-27 01:51:00,56.0,55.4,30.12,NNE,15,0.0,0.0,98,0.00,,,0.00,Wunderground v.1.15,2013-10-27 05:51:00,
2013-10-27 01:56:00,56.0,55.2,30.12,NNE,15,0.0,0.0,97,0.00,,,0.00,Wunderground v.1.15,2013-10-27 05:56:00,
2013-10-27 02:01:00,55.9,55.1,30.12,NNE,14,0.0,0.0,97,0.00,,,0.00,Wunderground v.1.15,2013-10-27 06:01:00,
2013-10-27 02:06:00,55.7,54.9,30.11,NNE,15,0.0,0.0,97,0.00,,,0.00,Wunderground v.1.15,2013-10-27 06:06:00,
2013-10-27 02:11:00,55.5,54.7,30.11,NNE,14,0.0,0.0,97,0.00,,,0.00,Wunderground v.1.15,2013-10-27 06:11:00,
2013-10-27 02:16:00,55.2,54.4,30.11,NNE,15,0.0,0.0,97,0.00,,,0.00,Wunderground v.1.15,2013-10-27 06:16:00,
2013-10-27 02:21:00,55.2,54.6,30.11,NNE,15,0.0,0.0,98,0.00,,,0.00,Wunderground v.1.15,2013-10-27 06:21:00,
2013-10-27 02:26:00,55.5,54.9,30.11,NNE,13,0.0,0.0,98,0.00,,,0.00,Wunderground v.1.15,2013-10-27 06:26:00,
2013-10-27 02:31:00,55.7,55.1,30.10,NNE,14,0.0,0.0,98,0.00,,,0.00,Wunderground v.1.15,2013-10-27 06:31:00,
2013-10-27 02:36:00,55.7,55.1,30.10,NNE,15,0.0,0.0,98,0.00,,,0.00,Wunderground v.1.15,2013-10-27 06:36:00,
2013-10-27 02:41:00,55.7,55.1,30.10,NNE,13,0.0,0.0,98,0.00,,,0.00,Wunderground v.1.15,2013-10-27 06:41:00,
2013-10-27 02:46:00,55.8,55.2,30.10,NNE,15,0.0,0.0,98,0.00,,,0.00,Wunderground v.1.15,2013-10-27 06:46:00,
2013-10-27 02:51:00,55.9,55.3,30.10,NNE,14,0.0,0.0,98,0.00,,,0.00,Wunderground v.1.15,2013-10-27 06:51:00,
2013-10-27 02:56:00,55.8,55.2,30.10,NNE,15,0.0,0.0,98,0.00,,,0.00,Wunderground v.1.15,2013-10-27 06:56:00,
2013-10-27 03:01:00,55.8,55.2,30.09,NNE,15,0.0,0.0,98,0.00,,,0.00,Wunderground v.1.15,2013-10-27 07:01:00,
2013-10-27 03:06:00,55.9,55.3,30.09,NNE,14,0.0,0.0,98,0.00,,,0.00,Wunderground v.1.15,2013-10-27 07:06:00,
2013-10-27 03:11:00,55.9,55.3,30.09,NNE,14,0.0,0.0,98,0.00,,,0.00,Wunderground v.1.15,2013-10-27 07:11:00,
2013-10-27 03:16:00,55.9,55.3,30.10,NNE,15,0.0,0.0,98,0.00,,,0.00,Wunderground v.1.15,2013-10-27 07:16:00,
2013-10-27 03:21:00,55.8,55.2,30.10,NNE,13,0.0,0.0,98,0.00,,,0.00,Wunderground v.1.15,2013-10-27 07:21:00,
2013-10-27 03:26:00,55.7,55.1,30.10,NNE,15,0.0,0.0,98,0.00,,,0.00,Wunderground v.1.15,2013-10-27 07:26:00,
2013-10-27 03:31:00,55.4,54.8,30.10,NNE,15,0.0,0.0,98,0.00,,,0.00,Wunderground v.1.15,2013-10-27 07:31:00,
2013-10-27 03:36:00,55.1,54.5,30.10,NNE,14,0.0,0.0,98,0.00,,,0.00,Wunderground v.1.15,2013-10-27 07:36:00,
2013-10-27 03:41:00,55.1,54.5,30.10,NNE,14,0.0,0.0,98,0.00,,,0.00,Wunderground v.1.15,2013-10-27 07:41:00,
2013-10-27 03:46:00,55.3,55.0,30.10,NNE,15,0.0,0.0,99,0.00,,,0.00,Wunderground v.1.15,2013-10-27 07:46:00,
2013-10-27 03:51:00,55.3,54.7,30.10,NNE,14,0.0,0.0,98,0.00,,,0.00,Wunderground v.1.15,2013-10-27 07:51:00,
2013-10-27 03:56:00,55.4,54.8,30.11,NNE,14,0.0,0.0,98,0.00,,,0.00,Wunderground v.1.15,2013-10-27 07:56:00,
2013-10-27 04:01:00,55.4,54.8,30.11,NNE,14,0.0,0.0,98,0.00,,,0.00,Wunderground v.1.15,2013-10-27 08:01:00,
2013-10-27 04:06:00,55.3,54.7,30.11,NNE,15,0.0,0.0,98,0.00,,,0.00,Wunderground v.1.15,2013-10-27 08:06:00,
2013-10-27 04:11:00,55.1,54.5,30.11,NNE,14,0.0,0.0,98,0.00,,,0.00,Wunderground v.1.15,2013-10-27 08:11:00,
2013-10-27 04:16:00,54.9,54.3,30.11,NNE,15,0.0,0.0,98,0.00,,,0.00,Wunderground v.1.15,2013-10-27 08:16:00,
2013-10-27 04:21:00,54.9,54.3,30.11,NNE,14,0.0,0.0,98,0.00,,,0.00,Wunderground v.1.15,2013-10-27 08:21:00,
2013-10-27 04:26:00,54.9,54.3,30.11,NNE,13,0.0,0.0,98,0.00,,,0.00,Wunderground v.1.15,2013-10-27 08:26:00,
2013-10-27 04:31:00,54.9,54.6,30.10,NNE,15,0.0,0.0,99,0.00,,,0.00,Wunderground v.1.15,2013-10-27 08:31:00,
2013-10-27 04:36:00,55.1,54.8,30.10,NNE,13,0.0,0.0,99,0.00,,,0.00,Wunderground v.1.15,2013-10-27 08:36:00,
2013-10-27 04:41:00,55.2,54.9,30.10,NNE,14,0.0,0.0,99,0.00,,,0.00,Wunderground v.1.15,2013-10-27 08:41:00,
2013-10-27 04:46:00,55.3,55.0,30.10,NNE,15,0.0,0.0,99,0.00,,,0.00,Wunderground v.1.15,2013-10-27 08:46:00,
2013-10-27 04:51:00,55.4,55.1,30.10,NNE,14,0.0,0.0,99,0.00,,,0.00,Wunderground v.1.15,2013-10-27 08:51:00,
2013-10-27 04:56:00,55.4,55.1,30.10,NNE,15,0.0,0.0,99,0.00,,,0.00,Wunderground v.1.15,2013-10-27 08:56:00,
2013-10-27 05:01:00,55.1,54.5,30.10,NNE,14,0.0,0.0,98,0.00,,,0.00,Wunderground v.1.15,2013-10-27 09:01:00,
2013-10-27 05:06:00,54.9,54.3,30.10,NNE,15,0.0,0.0,98,0.00,,,0.00,Wunderground v.1.15,2013-10-27 09:06:00,
2013-10-27 05:11:00,54.7,54.1,30.10,NNE,15,0.0,0.0,98,0.00,,,0.00,Wunderground v.1.15,2013-10-27 09:11:00,
2013-10-27 05:16:00,54.6,54.3,30.10,NNE,14,0.0,0.0,99,0.00,,,0.00,Wunderground v.1.15,2013-10-27 09:16:00,
2013-10-27 05:21:00,54.8,54.5,30.10,NNE,14,0.0,0.0,99,0.00,,,0.00,Wunderground v.1.15,2013-10-27 09:21:00,
2013-10-27 05:26:00,54.9,54.6,30.10,NNE,14,0.0,0.0,99,0.00,,,0.00,Wunderground v.1.15,2013-10-27 09:26:00,
2013-10-27 05:31:00,55.0,54.7,30.10,NNE,15,0.0,0.0,99,0.00,,,0.00,Wunderground v.1.15,2013-10-27 09:31:00,
2013-10-27 05:36:00,55.0,54.7,30.10,NNE,14,0.0,0.0,99,0.00,,,0.00,Wunderground v.1.15,2013-10-27 09:36:00,
2013-10-27 05:41:00,55.0,54.7,30.10,NNE,14,0.0,0.0,99,0.00,,,0.00,Wunderground v.1.15,2013-10-27 09:41:00,
2013-10-27 05:46:00,55.1,54.8,30.09,NNE,14,0.0,0.0,99,0.00,,,0.00,Wunderground v.1.15,2013-10-27 09:46:00,
2013-10-27 05:51:00,55.1,54.8,30.10,NNE,15,0.0,0.0,99,0.00,,,0.00,Wunderground v.1.15,2013-10-27 09:51:00,
2013-10-27 05:56:00,55.1,54.8,30.10,NNE,14,0.0,0.0,99,0.00,,,0.00,Wunderground v.1.15,2013-10-27 09:56:00,
2013-10-27 06:01:00,55.1,54.8,30.10,NNE,14,0.0,0.0,99,0.00,,,0.00,Wunderground v.1.15,2013-10-27 10:01:00,
2013-10-27 06:06:00,55.1,54.8,30.10,NNE,15,0.0,0.0,99,0.00,,,0.00,Wunderground v.1.15,2013-10-27 10:06:00,
2013-10-27 06:11:00,55.1,54.8,30.10,NNE,14,0.0,0.0,99,0.00,,,0.00,Wunderground v.1.15,2013-10-27 10:11:00,
2013-10-27 06:16:00,55.1,54.8,30.10,NNE,15,0.0,0.0,99,0.00,,,0.00,Wunderground v.1.15,2013-10-27 10:16:00,
2013-10-27 06:21:00,55.0,54.7,30.10,NNE,14,0.0,0.0,99,0.00,,,0.00,Wunderground v.1.15,2013-10-27 10:21:00,
2013-10-27 06:26:00,54.9,54.6,30.10,NNE,15,0.0,0.0,99,0.00,,,0.00,Wunderground v.1.15,2013-10-27 10:26:00,
2013-10-27 06:31:00,54.9,54.6,30.10,NNE,14,0.0,0.0,99,0.00,,,0.00,Wunderground v.1.15,2013-10-27 10:31:00,
2013-10-27 06:36:00,54.9,54.6,30.10,NNE,14,0.0,0.0,99,0.00,,,0.00,Wunderground v.1.15,2013-10-27 10:36:00,
2013-10-27 06:41:00,54.9,54.6,30.11,NNE,15,0.0,0.0,99,0.00,,,0.00,Wunderground v.1.15,2013-10-27 10:41:00,
2013-10-27 06:46:00,54.7,54.4,30.11,NNE,14,0.0,0.0,99,0.00,,,0.00,Wunderground v.1.15,2013-10-27 10:46:00,
2013-10-27 06:51:00,54.7,54.4,30.11,NNE,13,0.0,0.0,99,0.00,,,0.00,Wunderground v.1.15,2013-10-27 10:51:00,
2013-10-27 06:56:00,54.7,54.4,30.11,NNE,14,0.0,0.0,99,0.00,,,0.00,Wunderground v.1.15,2013-10-27 10:56:00,
2013-10-27 07:01:00,54.6,54.3,30.11,NNE,15,0.0,0.0,99,0.00,,,0.00,Wunderground v.1.15,2013-10-27 11:01:00,
2013-10-27 07:06:00,54.6,54.3,30.11,NNE,15,0.0,0.0,99,0.00,,,0.00,Wunderground v.1.15,2013-10-27 11:06:00,
2013-10-27 07:11:00,54.6,54.3,30.11,NNE,14,0.0,0.0,99,0.00,,,0.00,Wunderground v.1.15,2013-10-27 11:11:00,
2013-10-27 07:16:00,54.6,54.3,30.11,NNE,14,0.0,0.0,99,0.00,,,0.00,Wunderground v.1.15,2013-10-27 11:16:00,
2013-10-27 07:21:00,54.6,54.3,30.11,NNE,15,0.0,0.0,99,0.00,,,0.00,Wunderground v.1.15,2013-10-27 11:21:00,
2013-10-27 07:26:00,54.6,54.3,30.11,NNE,14,0.0,0.0,99,0.00,,,0.00,Wunderground v.1.15,2013-10-27 11:26:00,
2013-10-27 07:31:00,54.6,54.3,30.12,NNE,15,0.0,0.0,99,0.00,,,0.00,Wunderground v.1.15,2013-10-27 11:31:00,
2013-10-27 07:36:00,54.5,54.2,30.12,NNE,15,0.0,0.0,99,0.00,,,0.00,Wunderground v.1.15,2013-10-27 11:36:00,
2013-10-27 07:41:00,54.5,54.2,30.12,NNE,15,0.0,0.0,99,0.00,,,0.00,Wunderground v.1.15,2013-10-27 11:41:00,
2013-10-27 07:46:00,54.3,54.0,30.13,NNE,15,0.0,0.0,99,0.00,,,0.00,Wunderground v.1.15,2013-10-27 11:46:00,
2013-10-27 07:51:00,54.4,54.1,30.13,NNE,14,0.0,0.0,99,0.00,,,0.00,Wunderground v.1.15,2013-10-27 11:51:00,
2013-10-27 07:56:00,54.5,54.2,30.13,NNE,15,0.0,0.0,99,0.00,,,0.00,Wunderground v.1.15,2013-10-27 11:56:00,
2013-10-27 08:01:00,54.6,54.3,30.13,NNE,15,0.0,0.0,99,0.00,,,0.00,Wunderground v.1.15,2013-10-27 12:01:00,
2013-10-27 08:06:00,54.9,54.6,30.13,NNE,17,0.0,0.0,99,0.00,,,0.00,Wunderground v.1.15,2013-10-27 12:06:00,
2013-10-27 08:11:00,55.1,54.8,30.13,NNE,18,0.0,0.0,99,0.00,,,0.00,Wunderground v.1.15,2013-10-27 12:11:00,
2013-10-27 08:16:00,55.4,55.1,30.14,NNE,18,0.0,0.0,99,0.00,,,0.00,Wunderground v.1.15,2013-10-27 12:16:00,
2013-10-27 08:21:00,55.8,55.5,30.14,NE,50,0.0,0.0,99,0.00,,,0.00,Wunderground v.1.15,2013-10-27 12:21:00,
2013-10-27 08:26:00,56.1,55.8,30.14,NE,47,0.0,0.0,99,0.00,,,0.00,Wunderground v.1.15,2013-10-27 12:26:00,
2013-10-27 08:31:00,56.5,56.2,30.14,NNE,19,0.0,0.0,99,0.00,,,0.00,Wunderground v.1.15,2013-10-27 12:31:00,
2013-10-27 08:36:00,56.9,56.3,30.14,NNE,29,0.0,1.0,98,0.00,,,0.00,Wunderground v.1.15,2013-10-27 12:36:00,
2013-10-27 08:41:00,57.3,56.7,30.14,NE,38,0.0,0.0,98,0.00,,,0.00,Wunderground v.1.15,2013-10-27 12:41:00,
2013-10-27 08:46:00,57.8,57.0,30.14,NW,313,0.0,0.0,97,0.00,,,0.00,Wunderground v.1.15,2013-10-27 12:46:00,
2013-10-27 08:51:00,58.3,57.2,30.14,ENE,63,0.0,1.0,96,0.00,,,0.00,Wunderground v.1.15,2013-10-27 12:51:00,
2013-10-27 08:56:00,58.9,57.5,30.14,NNE,16,0.0,3.0,95,0.00,,,0.00,Wunderground v.1.15,2013-10-27 12:56:00,
2013-10-27 09:01:00,59.5,57.8,30.15,NNE,16,0.0,0.0,94,0.00,,,0.00,Wunderground v.1.15,2013-10-27 13:01:00,
2013-10-27 09:06:00,60.0,58.0,30.15,North,3,0.0,0.0,93,0.00,,,0.00,Wunderground v.1.15,2013-10-27 13:06:00,
2013-10-27 09:11:00,60.5,57.9,30.15,NNW,345,0.0,1.0,91,0.00,,,0.00,Wunderground v.1.15,2013-10-27 13:11:00,
2013-10-27 09:16:00,61.1,58.1,30.15,ENE,63,0.0,1.0,90,0.00,,,0.00,Wunderground v.1.15,2013-10-27 13:16:00,
2013-10-27 09:21:00,61.6,58.3,30.15,NNE,21,0.0,0.0,89,0.00,,,0.00,Wunderground v.1.15,2013-10-27 13:21:00,
2013-10-27 09:26:00,62.2,58.6,30.15,NNE,21,0.0,0.0,88,0.00,,,0.00,Wunderground v.1.15,2013-10-27 13:26:00,
2013-10-27 09:31:00,62.8,58.9,30.15,North,9,0.0,0.0,87,0.00,,,0.00,Wunderground v.1.15,2013-10-27 13:31:00,
2013-10-27 09:36:00,63.1,58.8,30.15,NNE,16,0.0,1.0,86,0.00,,,0.00,Wunderground v.1.15,2013-10-27 13:36:00,
2013-10-27 09:41:00,63.7,58.8,30.15,NNE,15,0.0,0.0,84,0.00,,,0.00,Wunderground v.1.15,2013-10-27 13:41:00,
2013-10-27 09:46:00,64.5,59.2,30.15,North,5,0.0,0.0,83,0.00,,,0.00,Wunderground v.1.15,2013-10-27 13:46:00,
2013-10-27 09:51:00,64.6,58.6,30.16,NNE,13,0.0,0.0,81,0.00,,,0.00,Wunderground v.1.15,2013-10-27 13:51:00,
2013-10-27 09:56:00,64.9,59.3,30.16,NNE,20,0.0,4.0,82,0.00,,,0.00,Wunderground v.1.15,2013-10-27 13:56:00,
2013-10-27 10:01:00,65.4,60.1,30.15,WSW,240,0.0,0.0,83,0.00,,,0.00,Wunderground v.1.15,2013-10-27 14:01:00,
2013-10-27 10:06:00,66.0,60.3,30.15,NW,321,0.0,0.0,82,0.00,,,0.00,Wunderground v.1.15,2013-10-27 14:06:00,
2013-10-27 10:11:00,66.9,60.5,30.15,West,260,0.0,0.0,80,0.00,,,0.00,Wunderground v.1.15,2013-10-27 14:11:00,
2013-10-27 10:16:00,68.0,61.6,30.16,SSW,198,0.0,0.0,80,0.00,,,0.00,Wunderground v.1.15,2013-10-27 14:16:00,
2013-10-27 10:21:00,68.6,60.7,30.16,SSW,208,0.0,0.0,76,0.00,,,0.00,Wunderground v.1.15,2013-10-27 14:21:00,
2013-10-27 10:26:00,69.1,60.5,30.16,SSE,155,0.0,0.0,74,0.00,,,0.00,Wunderground v.1.15,2013-10-27 14:26:00,
2013-10-27 10:31:00,69.6,60.9,30.16,SE,138,0.0,0.0,74,0.00,,,0.00,Wunderground v.1.15,2013-10-27 14:31:00,
2013-10-27 10:36:00,70.0,60.9,30.16,SE,136,0.0,0.0,73,0.00,,,0.00,Wunderground v.1.15,2013-10-27 14:36:00,
2013-10-27 10:41:00,70.4,61.7,30.16,WNW,301,0.0,0.0,74,0.00,,,0.00,Wunderground v.1.15,2013-10-27 14:41:00,
2013-10-27 10:46:00,71.0,60.7,30.16,WNW,297,0.0,1.0,70,0.00,,,0.00,Wunderground v.1.15,2013-10-27 14:46:00,
2013-10-27 10:51:00,71.5,60.8,30.16,NNW,340,0.0,0.0,69,0.00,,,0.00,Wunderground v.1.15,2013-10-27 14:51:00,
2013-10-27 10:56:00,71.6,60.9,30.16,NNE,30,0.0,2.0,69,0.00,,,0.00,Wunderground v.1.15,2013-10-27 14:56:00,
2013-10-27 11:01:00,71.8,60.7,30.16,NE,44,0.0,0.0,68,0.00,,,0.00,Wunderground v.1.15,2013-10-27 15:01:00,
2013-10-27 11:06:00,71.8,61.1,30.15,NNE,12,0.0,2.0,69,0.00,,,0.00,Wunderground v.1.15,2013-10-27 15:06:00,
2013-10-27 11:11:00,71.7,61.4,30.15,NNE,16,0.0,0.0,70,0.00,,,0.00,Wunderground v.1.15,2013-10-27 15:11:00,
2013-10-27 11:16:00,72.2,61.0,30.15,SE,141,0.0,1.0,68,0.00,,,0.00,Wunderground v.1.15,2013-10-27 15:16:00,
2013-10-27 11:21:00,73.2,61.6,30.15,SSW,193,0.0,0.0,67,0.00,,,0.00,Wunderground v.1.15,2013-10-27 15:21:00,
2013-10-27 11:26:00,73.7,60.8,30.15,NNE,33,0.0,4.0,64,0.00,,,0.00,Wunderground v.1.15,2013-10-27 15:26:00,
2013-10-27 11:30:00,74.0,60.2,30.15,SE,127,0.0,0.0,62,0.00,,,0.00,Wunderground v.1.15,2013-10-27 15:30:00,
2013-10-27 11:35:00,74.1,60.7,30.15,SSE,151,0.0,3.0,63,0.00,,,0.00,Wunderground v.1.15,2013-10-27 15:35:00,
2013-10-27 11:40:00,74.0,60.6,30.15,West,273,0.0,0.0,63,0.00,,,0.00,Wunderground v.1.15,2013-10-27 15:40:00,
2013-10-27 11:45:00,74.5,60.6,30.15,NE,51,0.0,0.0,62,0.00,,,0.00,Wunderground v.1.15,2013-10-27 15:45:00,
2013-10-27 11:50:00,75.1,60.7,30.15,WSW,240,0.0,0.0,61,0.00,,,0.00,Wunderground v.1.15,2013-10-27 15:50:00,
2013-10-27 11:55:00,75.7,61.8,30.15,South,183,0.0,0.0,62,0.00,,,0.00,Wunderground v.1.15,2013-10-27 15:55:00,
2013-10-27 12:00:00,76.1,60.2,30.15,NNW,328,0.0,0.0,58,0.00,,,0.00,Wunderground v.1.15,2013-10-27 16:00:00,
2013-10-27 12:05:00,76.0,60.6,30.15,SE,138,0.0,3.0,59,0.00,,,0.00,Wunderground v.1.15,2013-10-27 16:05:00,
2013-10-27 12:10:00,76.4,60.0,30.14,West,281,0.0,1.0,57,0.00,,,0.00,Wunderground v.1.15,2013-10-27 16:10:00,
2013-10-27 12:15:00,76.7,60.3,30.14,WNW,294,0.0,2.0,57,0.00,,,0.00,Wunderground v.1.15,2013-10-27 16:15:00,
2013-10-27 12:20:00,76.9,61.5,30.14,North,353,0.0,0.0,59,0.00,,,0.00,Wunderground v.1.15,2013-10-27 16:20:00,
2013-10-27 12:25:00,77.0,60.6,30.14,North,354,2.0,2.0,57,0.00,,,0.00,Wunderground v.1.15,2013-10-27 16:25:00,
2013-10-27 12:30:00,76.6,59.2,30.14,NNE,30,0.0,0.0,55,0.00,,,0.00,Wunderground v.1.15,2013-10-27 16:30:00,
2013-10-27 12:35:00,76.7,59.3,30.14,SE,127,0.0,1.0,55,0.00,,,0.00,Wunderground v.1.15,2013-10-27 16:35:00,
2013-10-27 12:40:00,76.5,57.0,30.14,ENE,68,0.0,0.0,51,0.00,,,0.00,Wunderground v.1.15,2013-10-27 16:40:00,
2013-10-27 12:45:00,76.2,56.7,30.14,NW,318,3.0,6.0,51,0.00,,,0.00,Wunderground v.1.15,2013-10-27 16:45:00,
2013-10-27 12:50:00,76.0,58.2,30.14,SE,132,0.0,1.0,54,0.00,,,0.00,Wunderground v.1.15,2013-10-27 16:50:00,
2013-10-27 12:55:00,75.9,57.5,30.13,NNW,330,0.0,6.0,53,0.00,,,0.00,Wunderground v.1.15,2013-10-27 16:55:00,
2013-10-27 13:00:00,76.3,57.4,30.14,NNE,27,0.0,2.0,52,0.00,,,0.00,Wunderground v.1.15,2013-10-27 17:00:00,
2013-10-27 13:05:00,76.6,57.7,30.13,NE,49,0.0,2.0,52,0.00,,,0.00,Wunderground v.1.15,2013-10-27 17:05:00,
2013-10-27 13:10:00,77.2,57.7,30.13,ESE,103,0.0,1.0,51,0.00,,,0.00,Wunderground v.1.15,2013-10-27 17:10:00,
2013-10-27 13:15:00,77.9,58.9,30.12,NE,39,0.0,1.0,52,0.00,,,0.00,Wunderground v.1.15,2013-10-27 17:15:00,
2013-10-27 13:20:00,77.9,56.6,30.12,East,97,0.0,0.0,48,0.00,,,0.00,Wunderground v.1.15,2013-10-27 17:20:00,
2013-10-27 13:25:00,78.2,58.0,30.12,ESE,107,0.0,1.0,50,0.00,,,0.00,Wunderground v.1.15,2013-10-27 17:25:00,
2013-10-27 13:30:00,78.0,57.3,30.11,ENE,69,0.0,0.0,49,0.00,,,0.00,Wunderground v.1.15,2013-10-27 17:30:00,
2013-10-27 13:35:00,78.6,57.8,30.11,SE,143,0.0,2.0,49,0.00,,,0.00,Wunderground v.1.15,2013-10-27 17:35:00,
2013-10-27 13:40:00,78.8,57.4,30.11,NNE,26,3.0,6.0,48,0.00,,,0.00,Wunderground v.1.15,2013-10-27 17:40:00,
2013-10-27 13:45:00,78.7,57.9,30.10,ENE,68,0.0,6.0,49,0.00,,,0.00,Wunderground v.1.15,2013-10-27 17:45:00,
2013-10-27 13:50:00,78.8,56.3,30.10,ESE,108,0.0,0.0,46,0.00,,,0.00,Wunderground v.1.15,2013-10-27 17:50:00,
2013-10-27 13:55:00,78.4,58.2,30.10,ESE,111,0.0,6.0,50,0.00,,,0.00,Wunderground v.1.15,2013-10-27 17:55:00,
2013-10-27 14:00:00,78.8,57.4,30.09,NE,41,0.0,0.0,48,0.00,,,0.00,Wunderground v.1.15,2013-10-27 18:00:00,
2013-10-27 14:05:00,79.1,55.9,30.09,NW,323,1.0,1.0,45,0.00,,,0.00,Wunderground v.1.15,2013-10-27 18:05:00,
2013-10-27 14:10:00,78.4,56.5,30.09,North,354,1.0,1.0,47,0.00,,,0.00,Wunderground v.1.15,2013-10-27 18:10:00,
2013-10-27 14:15:00,78.5,56.6,30.08,West,264,0.0,2.0,47,0.00,,,0.00,Wunderground v.1.15,2013-10-27 18:15:00,
2013-10-27 14:20:00,79.2,56.0,30.08,NNW,333,0.0,0.0,45,0.00,,,0.00,Wunderground v.1.15,2013-10-27 18:20:00,
2013-10-27 14:25:00,79.8,57.2,30.08,ESE,114,0.0,1.0,46,0.00,,,0.00,Wunderground v.1.15,2013-10-27 18:25:00,
2013-10-27 14:30:00,80.1,55.6,30.08,ENE,69,0.0,1.0,43,0.00,,,0.00,Wunderground v.1.15,2013-10-27 18:30:00,
2013-10-27 14:35:00,79.8,56.6,30.08,NW,304,1.0,1.0,45,0.00,,,0.00,Wunderground v.1.15,2013-10-27 18:35:00,
2013-10-27 14:40:00,79.9,56.0,30.08,NE,44,0.0,0.0,44,0.00,,,0.00,Wunderground v.1.15,2013-10-27 18:40:00,
2013-10-27 14:45:00,79.9,54.8,30.07,ENE,58,0.0,5.0,42,0.00,,,0.00,Wunderground v.1.15,2013-10-27 18:45:00,
2013-10-27 14:50:00,79.8,55.3,30.08,ENE,72,0.0,1.0,43,0.00,,,0.00,Wunderground v.1.15,2013-10-27 18:50:00,
2013-10-27 14:55:00,80.2,56.3,30.07,NNE,31,0.0,1.0,44,0.00,,,0.00,Wunderground v.1.15,2013-10-27 18:55:00,
2013-10-27 15:00:00,80.6,54.0,30.07,South,180,1.0,3.0,40,0.00,,,0.00,Wunderground v.1.15,2013-10-27 19:00:00,
2013-10-27 15:05:00,80.4,54.5,30.07,NNW,334,0.0,4.0,41,0.00,,,0.00,Wunderground v.1.15,2013-10-27 19:05:00,
2013-10-27 15:10:00,80.4,57.1,30.07,ENE,64,0.0,1.0,45,0.00,,,0.00,Wunderground v.1.15,2013-10-27 19:10:00,
2013-10-27 15:15:00,80.8,56.9,30.07,SE,138,0.0,1.0,44,0.00,,,0.00,Wunderground v.1.15,2013-10-27 19:15:00,
2013-10-27 15:20:00,81.1,56.5,30.07,NE,56,0.0,0.0,43,0.00,,,0.00,Wunderground v.1.15,2013-10-27 19:20:00,
2013-10-27 15:25:00,80.9,56.3,30.07,North,352,0.0,1.0,43,0.00,,,0.00,Wunderground v.1.15,2013-10-27 19:25:00,
2013-10-27 15:30:00,80.2,54.4,30.07,SW,222,0.0,0.0,41,0.00,,,0.00,Wunderground v.1.15,2013-10-27 19:30:00,
2013-10-27 15:35:00,80.5,56.6,30.07,SW,226,0.0,0.0,44,0.00,,,0.00,Wunderground v.1.15,2013-10-27 19:35:00,
2013-10-27 15:40:00,80.9,57.6,30.07,NE,40,0.0,0.0,45,0.00,,,0.00,Wunderground v.1.15,2013-10-27 19:40:00,
2013-10-27 15:45:00,81.0,57.0,30.07,SE,138,0.0,1.0,44,0.00,,,0.00,Wunderground v.1.15,2013-10-27 19:45:00,
2013-10-27 15:50:00,81.2,57.2,30.07,SW,225,0.0,0.0,44,0.00,,,0.00,Wunderground v.1.15,2013-10-27 19:50:00,
2013-10-27 15:55:00,81.0,57.0,30.07,SSE,164,0.0,2.0,44,0.00,,,0.00,Wunderground v.1.15,2013-10-27 19:55:00,
2013-10-27 16:00:00,80.9,57.6,30.07,NNE,32,0.0,0.0,45,0.00,,,0.00,Wunderground v.1.15,2013-10-27 20:00:00,
2013-10-27 16:05:00,81.0,57.0,30.07,SW,229,0.0,0.0,44,0.00,,,0.00,Wunderground v.1.15,2013-10-27 20:05:00,
2013-10-27 16:10:00,81.3,57.3,30.08,South,187,0.0,0.0,44,0.00,,,0.00,Wunderground v.1.15,2013-10-27 20:10:00,
2013-10-27 16:15:00,81.4,56.1,30.07,WSW,247,0.0,0.0,42,0.00,,,0.00,Wunderground v.1.15,2013-10-27 20:15:00,
2013-10-27 16:20:00,81.4,56.8,30.07,WSW,250,0.0,0.0,43,0.00,,,0.00,Wunderground v.1.15,2013-10-27 20:20:00,
2013-10-27 16:25:00,80.8,55.6,30.07,NNW,342,0.0,1.0,42,0.00,,,0.00,Wunderground v.1.15,2013-10-27 20:25:00,
2013-10-27 16:30:00,80.2,55.7,30.07,SSW,207,1.0,2.0,43,0.00,,,0.00,Wunderground v.1.15,2013-10-27 20:30:00,
2013-10-27 16:35:00,79.7,54.6,30.07,SSW,205,0.0,3.0,42,0.00,,,0.00,Wunderground v.1.15,2013-10-27 20:35:00,
2013-10-27 16:40:00,79.2,56.0,30.07,SSE,147,0.0,0.0,45,0.00,,,0.00,Wunderground v.1.15,2013-10-27 20:40:00,
2013-10-27 16:45:00,79.2,54.1,30.07,SSE,165,0.0,1.0,42,0.00,,,0.00,Wunderground v.1.15,2013-10-27 20:45:00,
2013-10-27 16:50:00,78.3,52.7,30.07,SSE,160,1.0,2.0,41,0.00,,,0.00,Wunderground v.1.15,2013-10-27 20:50:00,
2013-10-27 16:55:00,77.8,52.9,30.07,South,172,1.0,2.0,42,0.00,,,0.00,Wunderground v.1.15,2013-10-27 20:55:00,
2013-10-27 17:00:00,77.2,53.6,30.07,SW,217,0.0,1.0,44,0.00,,,0.00,Wunderground v.1.15,2013-10-27 21:00:00,
2013-10-27 17:05:00,76.8,53.8,30.07,SSE,155,0.0,3.0,45,0.00,,,0.00,Wunderground v.1.15,2013-10-27 21:05:00,
2013-10-27 17:10:00,76.3,52.8,30.07,ENE,77,0.0,0.0,44,0.00,,,0.00,Wunderground v.1.15,2013-10-27 21:10:00,
2013-10-27 17:15:00,76.2,52.1,30.07,SSE,159,0.0,1.0,43,0.00,,,0.00,Wunderground v.1.15,2013-10-27 21:15:00,
2013-10-27 17:20:00,76.0,53.1,30.07,SE,135,0.0,0.0,45,0.00,,,0.00,Wunderground v.1.15,2013-10-27 21:20:00,
2013-10-27 17:25:00,75.5,53.3,30.07,SE,136,0.0,0.0,46,0.00,,,0.00,Wunderground v.1.15,2013-10-27 21:25:00,
2013-10-27 17:30:00,75.0,55.1,30.08,SE,135,0.0,0.0,50,0.00,,,0.00,Wunderground v.1.15,2013-10-27 21:30:00,
2013-10-27 17:35:00,74.4,56.2,30.08,SE,136,0.0,0.0,53,0.00,,,0.00,Wunderground v.1.15,2013-10-27 21:35:00,
2013-10-27 17:40:00,73.7,54.4,30.08,SE,135,0.0,0.0,51,0.00,,,0.00,Wunderground v.1.15,2013-10-27 21:40:00,
2013-10-27 17:45:00,73.3,54.6,30.08,SE,135,0.0,0.0,52,0.00,,,0.00,Wunderground v.1.15,2013-10-27 21:45:00,
2013-10-27 17:50:00,72.8,54.7,30.08,SE,135,0.0,0.0,53,0.00,,,0.00,Wunderground v.1.15,2013-10-27 21:50:00,
2013-10-27 17:55:00,72.6,54.5,30.08,SSE,159,0.0,0.0,53,0.00,,,0.00,Wunderground v.1.15,2013-10-27 21:55:00,
2013-10-27 18:00:00,72.4,54.3,30.08,SSE,159,0.0,0.0,53,0.00,,,0.00,Wunderground v.1.15,2013-10-27 22:00:00,
2013-10-27 18:05:00,71.9,54.9,30.08,SSE,159,0.0,0.0,55,0.00,,,0.00,Wunderground v.1.15,2013-10-27 22:05:00,
2013-10-27 18:10:00,71.2,55.2,30.08,SSE,159,0.0,0.0,57,0.00,,,0.00,Wunderground v.1.15,2013-10-27 22:10:00,
2013-10-27 18:15:00,70.7,55.2,30.08,SSE,159,0.0,0.0,58,0.00,,,0.00,Wunderground v.1.15,2013-10-27 22:15:00,
2013-10-27 18:20:00,70.3,55.3,30.08,SSE,159,0.0,0.0,59,0.00,,,0.00,Wunderground v.1.15,2013-10-27 22:20:00,
2013-10-27 18:25:00,69.8,55.7,30.08,SSE,159,0.0,0.0,61,0.00,,,0.00,Wunderground v.1.15,2013-10-27 22:25:00,
2013-10-27 18:30:00,69.3,55.7,30.08,SSE,159,0.0,0.0,62,0.00,,,0.00,Wunderground v.1.15,2013-10-27 22:30:00,
2013-10-27 18:35:00,68.9,55.8,30.08,SSE,159,0.0,0.0,63,0.00,,,0.00,Wunderground v.1.15,2013-10-27 22:35:00,
2013-10-27 18:40:00,68.4,56.6,30.08,SSE,159,0.0,0.0,66,0.00,,,0.00,Wunderground v.1.15,2013-10-27 22:40:00,
2013-10-27 18:45:00,67.9,58.1,30.08,SSE,159,0.0,0.0,71,0.00,,,0.00,Wunderground v.1.15,2013-10-27 22:45:00,
2013-10-27 18:50:00,67.2,57.5,30.08,SSE,160,0.0,0.0,71,0.00,,,0.00,Wunderground v.1.15,2013-10-27 22:50:00,
2013-10-27 18:55:00,66.1,56.4,30.09,SSE,159,0.0,0.0,71,0.00,,,0.00,Wunderground v.1.15,2013-10-27 22:55:00,
2013-10-27 19:00:00,65.6,55.9,30.08,SSE,159,0.0,0.0,71,0.00,,,0.00,Wunderground v.1.15,2013-10-27 23:00:00,
2013-10-27 19:05:00,65.2,57.1,30.09,NW,322,0.0,0.0,75,0.00,,,0.00,Wunderground v.1.15,2013-10-27 23:05:00,
2013-10-27 19:10:00,65.2,57.1,30.09,ENE,68,0.0,0.0,75,0.00,,,0.00,Wunderground v.1.15,2013-10-27 23:10:00,
2013-10-27 19:15:00,65.7,57.2,30.09,ENE,65,0.0,0.0,74,0.00,,,0.00,Wunderground v.1.15,2013-10-27 23:15:00,
2013-10-27 19:20:00,66.1,57.6,30.09,ENE,65,0.0,0.0,74,0.00,,,0.00,Wunderground v.1.15,2013-10-27 23:20:00,
2013-10-27 19:25:00,66.2,57.3,30.09,ENE,65,0.0,0.0,73,0.00,,,0.00,Wunderground v.1.15,2013-10-27 23:25:00,
2013-10-27 19:30:00,66.1,57.2,30.10,ENE,65,0.0,0.0,73,0.00,,,0.00,Wunderground v.1.15,2013-10-27 23:30:00,
2013-10-27 19:35:00,66.2,56.9,30.10,ENE,65,0.0,0.0,72,0.00,,,0.00,Wunderground v.1.15,2013-10-27 23:35:00,
2013-10-27 19:40:00,66.1,56.0,30.10,WNW,287,0.0,0.0,70,0.00,,,0.00,Wunderground v.1.15,2013-10-27 23:40:00,
2013-10-27 19:45:00,66.1,56.0,30.11,WNW,285,0.0,0.0,70,0.00,,,0.00,Wunderground v.1.15,2013-10-27 23:45:00,
2013-10-27 19:50:00,66.0,55.9,30.11,WNW,287,0.0,0.0,70,0.00,,,0.00,Wunderground v.1.15,2013-10-27 23:50:00,
2013-10-27 19:55:00,65.6,55.5,30.11,WNW,287,0.0,0.0,70,0.00,,,0.00,Wunderground v.1.15,2013-10-27 23:55:00,
2013-10-27 20:00:00,65.3,54.9,30.11,WNW,286,0.0,0.0,69,0.00,,,0.00,Wunderground v.1.15,2013-10-28 00:00:00,
2013-10-27 20:05:00,65.1,55.1,30.11,WNW,286,0.0,0.0,70,0.00,,,0.00,Wunderground v.1.15,2013-10-28 00:05:00,
2013-10-27 20:10:00,64.8,54.8,30.11,ENE,66,0.0,0.0,70,0.00,,,0.00,Wunderground v.1.15,2013-10-28 00:10:00,
2013-10-27 20:15:00,64.7,54.7,30.11,ENE,67,0.0,0.0,70,0.00,,,0.00,Wunderground v.1.15,2013-10-28 00:15:00,
2013-10-27 20:20:00,64.5,54.5,30.11,NE,40,0.0,0.0,70,0.00,,,0.00,Wunderground v.1.15,2013-10-28 00:20:00,
2013-10-27 20:25:00,64.5,54.1,30.11,NE,40,0.0,0.0,69,0.00,,,0.00,Wunderground v.1.15,2013-10-28 00:25:00,
2013-10-27 20:30:00,64.5,54.5,30.11,NE,40,0.0,0.0,70,0.00,,,0.00,Wunderground v.1.15,2013-10-28 00:30:00,
2013-10-27 20:35:00,64.2,54.6,30.11,NE,40,0.0,0.0,71,0.00,,,0.00,Wunderground v.1.15,2013-10-28 00:35:00,
2013-10-27 20:40:00,63.9,54.7,30.12,NE,40,0.0,0.0,72,0.00,,,0.00,Wunderground v.1.15,2013-10-28 00:40:00,
2013-10-27 20:45:00,63.6,54.4,30.12,NE,40,0.0,0.0,72,0.00,,,0.00,Wunderground v.1.15,2013-10-28 00:45:00,
2013-10-27 20:50:00,63.3,53.7,30.12,NE,40,0.0,0.0,71,0.00,,,0.00,Wunderground v.1.15,2013-10-28 00:50:00,
2013-10-27 20:55:00,63.0,54.2,30.12,NE,40,0.0,0.0,73,0.00,,,0.00,Wunderground v.1.15,2013-10-28 00:55:00,
2013-10-27 21:00:00,62.6,54.2,30.12,NE,40,0.0,0.0,74,0.00,,,0.00,Wunderground v.1.15,2013-10-28 01:00:00,
2013-10-27 21:05:00,62.2,53.8,30.13,NE,40,0.0,0.0,74,0.00,,,0.00,Wunderground v.1.15,2013-10-28 01:05:00,
2013-10-27 21:10:00,62.1,54.1,30.13,NE,40,0.0,0.0,75,0.00,,,0.00,Wunderground v.1.15,2013-10-28 01:10:00,
2013-10-27 21:15:00,61.9,54.2,30.13,NE,40,0.0,0.0,76,0.00,,,0.00,Wunderground v.1.15,2013-10-28 01:15:00,
2013-10-27 21:20:00,61.6,54.0,30.13,NE,40,0.0,0.0,76,0.00,,,0.00,Wunderground v.1.15,2013-10-28 01:20:00,
2013-10-27 21:25:00,61.4,54.1,30.13,NE,40,0.0,0.0,77,0.00,,,0.00,Wunderground v.1.15,2013-10-28 01:25:00,
2013-10-27 21:30:00,61.3,54.4,30.13,NE,40,0.0,0.0,78,0.00,,,0.00,Wunderground v.1.15,2013-10-28 01:30:00,
2013-10-27 21:35:00,61.2,54.3,30.13,NE,40,0.0,0.0,78,0.00,,,0.00,Wunderground v.1.15,2013-10-28 01:35:00,
2013-10-27 21:40:00,61.0,54.1,30.13,NE,40,0.0,0.0,78,0.00,,,0.00,Wunderground v.1.15,2013-10-28 01:40:00,
2013-10-27 21:45:00,61.0,54.1,30.13,NE,40,0.0,0.0,78,0.00,,,0.00,Wunderground v.1.15,2013-10-28 01:45:00,
2013-10-27 21:50:00,60.9,54.0,30.13,NE,40,0.0,0.0,78,0.00,,,0.00,Wunderground v.1.15,2013-10-28 01:50:00,
2013-10-27 21:55:00,60.8,53.9,30.13,NE,40,0.0,0.0,78,0.00,,,0.00,Wunderground v.1.15,2013-10-28 01:55:00,
2013-10-27 22:00:00,60.8,54.2,30.14,NE,40,0.0,0.0,79,0.00,,,0.00,Wunderground v.1.15,2013-10-28 02:00:00,
2013-10-27 22:05:00,60.8,54.2,30.14,NE,40,0.0,0.0,79,0.00,,,0.00,Wunderground v.1.15,2013-10-28 02:05:00,
2013-10-27 22:10:00,60.6,54.4,30.14,NE,40,0.0,0.0,80,0.00,,,0.00,Wunderground v.1.15,2013-10-28 02:10:00,
2013-10-27 22:15:00,60.3,54.1,30.13,NE,40,0.0,0.0,80,0.00,,,0.00,Wunderground v.1.15,2013-10-28 02:15:00,
2013-10-27 22:20:00,60.1,53.9,30.14,NE,40,0.0,0.0,80,0.00,,,0.00,Wunderground v.1.15,2013-10-28 02:20:00,
2013-10-27 22:25:00,59.8,54.0,30.14,NE,40,0.0,0.0,81,0.00,,,0.00,Wunderground v.1.15,2013-10-28 02:25:00,
2013-10-27 22:30:00,59.5,54.0,30.14,NE,40,0.0,0.0,82,0.00,,,0.00,Wunderground v.1.15,2013-10-28 02:30:00,
2013-10-27 22:35:00,59.2,54.0,30.14,NE,40,0.0,0.0,83,0.00,,,0.00,Wunderground v.1.15,2013-10-28 02:35:00,
2013-10-27 22:40:00,58.9,54.4,30.14,NE,40,0.0,0.0,85,0.00,,,0.00,Wunderground v.1.15,2013-10-28 02:40:00,
2013-10-27 22:45:00,58.4,54.2,30.13,NE,40,0.0,0.0,86,0.00,,,0.00,Wunderground v.1.15,2013-10-28 02:45:00,
2013-10-27 22:50:00,58.2,54.3,30.13,NE,40,0.0,0.0,87,0.00,,,0.00,Wunderground v.1.15,2013-10-28 02:50:00,
2013-10-27 22:55:00,58.0,54.5,30.14,NE,40,0.0,0.0,88,0.00,,,0.00,Wunderground v.1.15,2013-10-28 02:55:00,
2013-10-27 23:00:00,57.7,54.2,30.13,NE,40,0.0,0.0,88,0.00,,,0.00,Wunderground v.1.15,2013-10-28 03:00:00,
2013-10-27 23:05:00,57.5,54.3,30.13,NE,39,0.0,0.0,89,0.00,,,0.00,Wunderground v.1.15,2013-10-28 03:05:00,
2013-10-27 23:10:00,57.2,54.0,30.13,NE,40,0.0,0.0,89,0.00,,,0.00,Wunderground v.1.15,2013-10-28 03:10:00,
2013-10-27 23:15:00,57.1,53.6,30.13,NE,40,0.0,0.0,88,0.00,,,0.00,Wunderground v.1.15,2013-10-28 03:15:00,
2013-10-27 23:20:00,57.1,53.9,30.14,NE,40,0.0,0.0,89,0.00,,,0.00,Wunderground v.1.15,2013-10-28 03:20:00,
2013-10-27 23:25:00,57.0,53.8,30.14,NE,40,0.0,0.0,89,0.00,,,0.00,Wunderground v.1.15,2013-10-28 03:25:00,
2013-10-27 23:30:00,56.5,53.0,30.14,NE,40,0.0,0.0,88,0.00,,,0.00,Wunderground v.1.15,2013-10-28 03:30:00,
2013-10-27 23:35:00,56.5,53.3,30.14,NE,40,0.0,0.0,89,0.00,,,0.00,Wunderground v.1.15,2013-10-28 03:35:00,
2013-10-27 23:40:00,56.3,53.1,30.14,NE,40,0.0,0.0,89,0.00,,,0.00,Wunderground v.1.15,2013-10-28 03:40:00,
2013-10-27 23:45:00,56.0,53.1,30.14,NE,40,0.0,0.0,90,0.00,,,0.00,Wunderground v.1.15,2013-10-28 03:45:00,
2013-10-27 23:50:00,56.1,53.5,30.14,NE,40,0.0,0.0,91,0.00,,,0.00,Wunderground v.1.15,2013-10-28 03:50:00,
2013-10-27 23:55:00,56.1,53.5,30.14,NE,40,0.0,0.0,91,0.00,,,0.00,Wunderground v.1.15,2013-10-28 03:55:00,